Погода в Исаевском

Россия / Ивановская область     57°00′51″N   39°41′52″E
В апреле 2022 года жителям России запретили посещать сайт meteo.paraplan.net по решению Генеральной прокуратуры. Аудитория сайта уменьшилась в 10 раз. Владельцы сайта не видят смысла в поддержке погодного сервера в таких условиях. Сайт будет закрыт в октябре.
темп.,
°C
ветер,
м/с
пор.,
м/с
влажн.,
%
обл.,
%
осадки,
мм/ч
давл.,
гПа
погр.,
м
29 сентября, чт
чт2900:00+6в5996100 0.3 1004405
03:00+6в4796100 0.5 1005313
06:00+6вюв3497100 0.1 1006184
09:00+8ююз2496100 0.1 1007269
12:00+10юз3475100 0.0 1008812
15:00+12юз347099 0.1 1010772
18:00+10юв2382100 0.0 101144
21:00+10ю369198 0.1 1013162
30 сентября, пт
пт3000:00+8ю359430 0.0 101471
03:00+7ю3593100 0.0 101579
06:00+8ююв4893100 0.0 1016162
09:00+11ю51081100 0.0 1016323
12:00+15ю61060100 0.0 1015711
15:00+16ю5963100 0.0 1015963
18:00+13ю51187100 0.6 1016481
21:00+13ю3893100 1.2 1016300
1 октября, сб
сб100:00+12юз2597100 0.1 1016220
03:00+12зсз2597100 0.2 1016224
06:00+10зсз2294100 0.1 101743
09:00+11ссз1185100 0.1 1017201
12:00+12с2280100 0.0 1017360
15:00+11с2493100 0.8 1015148
18:00+11св2695100 1.1 1014210
21:00+10св3795100 1.2 1013272
2 октября, вс
вс200:00+11всв3796100 0.3 1011309
03:00+10св3599100 9.4 1009240
06:00+10св2499100 0.6 1008222
09:00+10св3495100 0.6 1008223
12:00+10с4494100 0.0 1009356
15:00+9с4793100 0.1 1011419
18:00+8ссв379288 0.0 1012468
21:00+7ссв389275 0.1 1013329
3 октября, пн
пн300:00+7ссв3790100 0.0 1013300
03:00+6св389598 0.0 1013215
06:00+9св479388 0.0 1011310
09:00+9всв61191100 0.0 1010441
12:00+11всв71386100 0.1 1008472
15:00+13в71491100 1.0 1007656
18:00+14в81695100 0.3 1006729
21:00+14вюв81684100 0.6 1005803